DK4ARL Weather Reports


time (UTC)temp
C
wind
direction
speed
KPH
gust
KPH
rain 1hr
cm
rain 24hr
cm
rain mn
cm
humidity
%
barometer
mb
20260506002857 11 0.0 0.0 0.00 0.23 0.00 971.5
20260506001417 11 0.0 0.0 0.00 0.23 0.00 971.6
20260505235938 11 0.0 0.0 0.00 0.23 0.00 971.7
20260505234457 12 0.0 0.0 0.00 0.23 0.00 971.7
20260505233026 12 0.0 0.0 0.00 0.23 0.00 971.6
20260505231545 12 0.0 0.0 0.00 0.23 0.00 971.6
20260505230105 12 0.0 0.0 0.00 0.23 0.00 971.6
20260505224624 12 0.0 0.0 0.00 0.23 0.00 971.6
20260505223144 12 0.0 0.0 0.00 0.23 0.00 971.6
20260505221703 12 0.0 0.0 0.00 0.23 0.00 971.6
20260505220221 12 0.0 0.0 0.00 0.23 0.00 971.6
20260505214739 12 0.0 0.0 0.00 0.23 0.00 971.6
20260505213257 12 0.0 0.0 0.00 0.23 0.00 971.5
20260505211815 12 0.0 0.0 0.00 0.23 0.00 971.5
20260505210333 12 0.0 0.0 0.00 0.23 0.00 971.4
20260505204850 12 0.0 0.0 0.00 0.23 0.00 971.3
20260505203408 12 0.0 0.0 0.00 0.23 0.00 971.2
20260505201925 12 0.0 0.0 0.00 0.23 0.00 971.1
20260505200442 12 0.0 0.0 0.00 0.23 0.00 971.0
20260505194958 12 0.0 0.0 0.00 0.23 0.00 970.9
20260505193514 12 0.0 0.0 0.00 0.23 0.00 970.8
20260505192029 13 0.0 0.0 0.00 0.23 0.00 970.8
20260505190543 13 0.0 0.0 0.00 0.23 0.00 970.8
20260505185056 13 0.0 0.0 0.05 0.23 0.00 970.8
20260505183611 14 0.0 0.0 0.03 0.20 0.00 970.8
20260505182123 14 0.0 0.0 0.03 0.20 0.00 970.8
20260505180640 15 0.0 0.0 0.00 0.20 0.00 970.9
20260505175152 15 0.0 0.0 0.00 0.18 0.00 970.9
20260505173702 15 0.0 0.0 0.00 0.18 0.00 970.8
20260505172212 16 0.0 0.0 0.00 0.18 0.00 970.7
20260505170721 16 0.0 0.0 0.00 0.18 0.00 970.7
20260505160753 17 0.0 0.0 0.00 0.15 0.00 971.1
20260505152317 16 0.0 0.0 0.00 0.15 0.00 971.4
20260505150825 15 0.0 0.0 0.00 0.15 0.00 971.5
20260505123843 21 0.0 0.0 0.00 0.00 0.00 970.7
20260505122334 21 0.0 0.0 0.00 0.00 0.00 970.8
20260505115315 21 0.0 0.0 0.00 0.00 0.00 970.9
20260505113804 21 0.0 0.0 0.00 0.00 0.00 971.0
20260505112251 22 0.0 0.0 0.00 0.00 0.00 971.1
20260505110738 21 0.0 0.0 0.00 0.00 0.00 971.2
20260505102156 21 0.0 0.0 0.00 0.00 0.00 971.6
20260505100643 24 0.0 0.0 0.00 0.00 0.00 971.7
20260505095131 23 0.0 0.0 0.00 0.00 0.00 971.8
20260505093621 22 0.0 0.0 0.00 0.00 0.00 972.0
20260505092111 23 0.0 0.0 0.00 0.00 0.00 972.1
20260505090603 23 0.0 0.0 0.00 0.00 0.00 972.2
20260505085057 25 0.0 0.0 0.00 0.00 0.00 972.3
20260505083552 22 0.0 0.0 0.00 0.00 0.00 972.3
20260505082050 22 0.0 0.0 0.00 0.00 0.00 972.4
20260505080549 21 0.0 0.0 0.00 0.00 0.00 972.5
20260505075050 22 0.0 0.0 0.00 0.00 0.00 972.6
20260505073554 21 0.0 0.0 0.00 0.00 0.00 972.7
20260505072100 18 0.0 0.0 0.00 0.00 0.00 972.8
20260505070609 19 0.0 0.0 0.00 0.00 0.00 972.9
20260505065121 17 0.0 0.0 0.00 0.00 0.00 973.0
20260505063635 15 0.0 0.0 0.00 0.00 0.00 973.1
20260505062150 15 0.0 0.0 0.00 0.00 0.00 973.1
20260505060706 15 0.0 0.0 0.00 0.00 0.00 973.2
20260505055232 14 0.0 0.0 0.00 0.00 0.00 973.2
20260505053749 15 0.0 0.0 0.00 0.00 0.00 973.2
20260505052306 15 0.0 0.0 0.00 0.00 0.00 973.2
20260505050825 15 0.0 0.0 0.00 0.00 0.00 973.2
20260505035509 12 0.0 0.0 0.00 0.00 0.00 973.4
20260505032549 12 0.0 0.0 0.00 0.00 0.00 973.7
20260505031108 12 0.0 0.0 0.00 0.00 0.00 973.8
20260505025627 13 0.0 0.0 0.00 0.00 0.00 974.0
20260505024145 13 0.0 0.0 0.00 0.00 0.00 974.1
20260505022704 13 0.0 0.0 0.00 0.00 0.00 974.3
20260505021222 13 0.0 0.0 0.00 0.00 0.00 974.4
20260505015740 13 0.0 0.0 0.00 0.00 0.00 974.5
20260505014257 13 0.0 0.0 0.00 0.00 0.00 974.6
20260505012814 13 0.0 0.0 0.00 0.00 0.00 974.7
20260505011332 13 0.0 0.0 0.00 0.00 0.00 974.7
20260505005859 13 0.0 0.0 0.00 0.00 0.00 974.7
20260505004415 14 0.0 0.0 0.00 0.00 0.00 974.8